Overview Statistics Trail Chart Weather Telemetry Raw packets
 

This is the latest recevied weather packets stored in our database for station/object OK2ZAW-21. If no packets are shown the sender has not sent any weather packets the latest 10 day(s).

<< 98 99 100 101 102 103 104 >>
Time Temp. Humidity Pressure Rain* Wind** Luminosity Snow
1787926158 29.44° C 40% 1016.9 hPa - - 424 W/m² -
1787925845 29.44° C 40% 1016.7 hPa - - 423 W/m² -
1787925533 29.44° C 40% 1016.9 hPa - - 422 W/m² -
1787925221 29.44° C 40% 1016.7 hPa - - 422 W/m² -
1787924908 28.89° C 41% 1016.8 hPa - - 422 W/m² -
1787924596 28.89° C 42% 1016.7 hPa - - 422 W/m² -
1787924284 28.33° C 43% 1016.8 hPa - - 423 W/m² -
1787923972 27.78° C 44% 1016.6 hPa - - 423 W/m² -
1787923659 27.78° C 45% 1016.7 hPa - - 423 W/m² -
1787923347 27.78° C 44% 1016.9 hPa - - 423 W/m² -
1787923035 28.33° C 44% 1016.5 hPa - - 423 W/m² -
1787922411 28.33° C 43% 1016.6 hPa - - 423 W/m² -
1787922098 28.33° C 43% 1016.7 hPa - - 423 W/m² -
1787921786 28.33° C 44% 1016.8 hPa - - 423 W/m² -
1787921474 28.33° C 44% 1016.9 hPa - - 423 W/m² -
1787921161 27.78° C 45% 1016.5 hPa - - 423 W/m² -
1787920849 28.33° C 45% 1017 hPa - - 423 W/m² -
1787920537 28.33° C 44% 1016.7 hPa - - 424 W/m² -
1787920225 28.33° C 44% 1016.6 hPa - - 424 W/m² -
1787919912 28.33° C 44% 1017 hPa - - 424 W/m² -
1787919288 28.33° C 44% 1017.4 hPa - - 424 W/m² -
1787918664 27.78° C 45% 1017.1 hPa - - 424 W/m² -
1787918352 27.78° C 45% 1017.4 hPa - - 424 W/m² -
1787918039 27.22° C 45% 1016.9 hPa - - 425 W/m² -
1787917415 27.78° C 45% 1016.9 hPa - - 424 W/m² -

* Rain since midnight (hover to see other rain measurements)
** Current wind speed in m/s (hover to see current wind gust speed)